GW6733 Weather Reports


Display with metric or nautical units.
time (UTC)temp
F
wind
direction
speed
MPH
gust
MPH
rain 1hr
in
rain 24hr
in
rain mn
in
humidity
%
barometer
mb
20260509212718 64 92 4.0 4.0 0.00 0.00 0.00 65 1010.1
20260509212214 64 69 2.0 3.0 0.00 0.00 0.00 68 1010.2
20260509211710 62 74 2.0 6.0 0.00 0.00 0.00 70 1010.5
20260509211207 62 82 3.0 4.0 0.00 0.00 0.00 72 1010.3
20260509210704 62 85 3.0 4.0 0.00 0.00 0.00 71 1010.2
20260509210201 62 89 2.0 4.0 0.00 0.00 0.00 72 1010.7
20260509205701 62 78 3.0 3.0 0.00 0.00 0.00 73 1010.5
20260509205200 62 58 3.0 4.0 0.00 0.00 0.00 74 1010.6
20260509204657 62 81 2.0 3.0 0.00 0.00 0.00 72 1010.7
20260509204153 62 83 2.0 4.0 0.00 0.00 0.00 71 1010.6
20260509203649 62 72 2.0 3.0 0.00 0.00 0.00 72 1010.9
20260509203148 62 83 1.0 1.0 0.00 0.00 0.00 72 1010.7
20260509202643 62 44 0.0 2.0 0.00 0.00 0.00 76 1010.7
20260509202138 62 352 2.0 2.0 0.00 0.00 0.00 75 1010.7
20260509201634 61 57 2.0 3.0 0.00 0.00 0.00 71 1010.5
20260509201132 61 79 3.0 6.0 0.00 0.00 0.00 70 1010.3
20260509200627 62 87 2.0 4.0 0.00 0.00 0.00 69 1010.2
20260509200123 62 78 4.0 4.0 0.00 0.00 0.00 70 1010.5
20260509195619 62 39 0.0 1.0 0.00 0.00 0.00 66 1010.7
20260509195113 62 66 1.0 3.0 0.00 0.00 0.00 67 1010.5
20260509194612 62 72 2.0 3.0 0.00 0.00 0.00 72 1010.6
20260509194111 62 73 2.0 3.0 0.00 0.00 0.00 71 1010.6
20260509193606 62 83 3.0 4.0 0.00 0.00 0.00 68 1010.3
20260509193102 62 62 2.0 3.0 0.00 0.00 0.00 67 1010.9
20260509192559 62 62 1.0 2.0 0.00 0.00 0.00 67 1011.0
20260509192054 62 300 2.0 3.0 0.00 0.00 0.00 66 1010.8
20260509191555 62 180 2.0 5.0 0.00 0.00 0.00 65 1010.9
20260509191051 62 207 2.0 4.0 0.00 0.00 0.00 67 1010.8
20260509190548 62 94 3.0 3.0 0.00 0.00 0.00 66 1010.9
20260509190046 62 269 2.0 3.0 0.00 0.00 0.00 69 1010.9
20260509185543 62 47 3.0 5.0 0.00 0.00 0.00 69 1011.0
20260509185039 62 75 4.0 6.0 0.00 0.00 0.00 72 1011.1
20260509184537 62 82 3.0 3.0 0.00 0.00 0.00 73 1011.5
20260509184033 62 93 2.0 4.0 0.00 0.00 0.00 70 1011.6
20260509183529 61 74 2.0 5.0 0.00 0.00 0.00 73 1011.7
20260509183025 60 86 5.0 5.0 0.00 0.00 0.00 75 1011.7
20260509182521 60 76 5.0 6.0 0.00 0.00 0.00 76 1011.6
20260509182018 60 101 4.0 8.0 0.00 0.00 0.00 75 1011.6
20260509181517 60 228 2.0 5.0 0.00 0.00 0.00 78 1011.4
20260509181014 59 88 4.0 7.0 0.00 0.00 0.00 78 1011.6
20260509180509 60 120 9.0 10.0 0.00 0.00 0.00 79 1011.4
20260509180007 59 76 3.0 6.0 0.00 0.00 0.00 80 1011.6
20260509175502 59 112 3.0 4.0 0.00 0.00 0.00 82 1011.9
20260509174959 58 86 3.0 7.0 0.00 0.00 0.00 82 1011.9
20260509174455 58 89 3.0 3.0 0.00 0.00 0.00 82 1011.8
20260509173950 58 111 5.0 5.0 0.00 0.00 0.00 82 1011.9
20260509173444 57 67 2.0 3.0 0.00 0.00 0.00 83 1011.8
20260509172941 57 66 2.0 3.0 0.00 0.00 0.00 81 1011.8
20260509172438 57 71 2.0 2.0 0.00 0.00 0.00 81 1012.0
20260509171934 57 74 2.0 3.0 0.00 0.00 0.00 83 1012.1
20260509171430 57 54 2.0 3.0 0.00 0.00 0.00 85 1012.0
20260509170927 57 69 3.0 4.0 0.00 0.00 0.00 84 1012.2
20260509170422 57 71 2.0 2.0 0.00 0.00 0.00 85 1012.2
20260509165918 56 76 1.0 2.0 0.00 0.00 0.00 86 1012.0
20260509165412 56 80 2.0 4.0 0.00 0.00 0.00 85 1012.3
20260509164908 56 74 2.0 4.0 0.00 0.00 0.00 85 1012.3
20260509164404 56 87 2.0 4.0 0.00 0.00 0.00 86 1012.1
20260509163900 55 89 4.0 4.0 0.00 0.00 0.00 86 1012.3
20260509163357 55 100 3.0 4.0 0.00 0.00 0.00 87 1012.4
20260509162857 55 84 3.0 5.0 0.00 0.00 0.00 87 1012.5
20260509162355 55 110 1.0 5.0 0.00 0.00 0.00 88 1012.4
20260509161851 55 85 2.0 4.0 0.00 0.00 0.00 88 1012.5
20260509161348 55 79 4.0 4.0 0.00 0.00 0.00 89 1012.2
20260509160844 55 115 0.0 4.0 0.00 0.00 0.00 89 1012.5
20260509160340 55 71 2.0 5.0 0.00 0.00 0.00 89 1012.2
20260509155835 54 97 2.0 4.0 0.00 0.00 0.00 90 1012.1
20260509155332 54 79 2.0 5.0 0.00 0.00 0.00 89 1012.1
20260509154828 54 89 3.0 5.0 0.00 0.00 0.00 91 1011.9
20260509154324 53 101 3.0 3.0 0.00 0.00 0.00 91 1012.0
20260509153821 53 61 1.0 2.0 0.00 0.00 0.00 91 1012.1
20260509153318 53 89 2.0 3.0 0.00 0.00 0.00 91 1012.1
20260509152815 52 74 3.0 3.0 0.00 0.00 0.00 91 1012.4
20260509152311 52 64 2.0 3.0 0.00 0.00 0.00 91 1012.4
20260509151808 52 62 3.0 4.0 0.00 0.00 0.00 91 1012.6
20260509151304 52 43 3.0 3.0 0.00 0.00 0.00 90 1012.7
20260509150803 53 30 2.0 3.0 0.00 0.00 0.00 90 1013.1
20260509150301 53 46 2.0 3.0 0.00 0.00 0.00 89 1012.9
20260509145757 53 27 2.0 2.0 0.00 0.00 0.00 89 1012.9
20260509145257 53 29 2.0 2.0 0.00 0.00 0.00 88 1013.0
20260509144754 54 31 2.0 3.0 0.00 0.00 0.00 87 1012.6
20260509144251 54 46 2.0 3.0 0.00 0.00 0.00 86 1012.9
20260509143748 54 76 2.0 3.0 0.00 0.00 0.00 85 1012.8
20260509143245 54 76 2.0 3.0 0.00 0.00 0.00 84 1012.7
20260509142741 54 68 3.0 4.0 0.00 0.00 0.00 83 1012.6
20260509142237 54 91 2.0 3.0 0.00 0.00 0.00 82 1012.6
20260509141733 55 77 2.0 2.0 0.00 0.00 0.00 82 1012.9
20260509141231 55 86 2.0 2.0 0.00 0.00 0.00 81 1012.7
20260509140727 54 69 2.0 3.0 0.00 0.00 0.00 80 1012.9
20260509140225 55 84 2.0 3.0 0.00 0.00 0.00 80 1012.4
20260509135722 55 62 2.0 3.0 0.00 0.00 0.00 78 1012.3
20260509135220 55 42 2.0 3.0 0.00 0.00 0.00 78 1012.3
20260509134716 55 54 2.0 3.0 0.00 0.00 0.00 77 1012.5
20260509134214 55 68 3.0 3.0 0.00 0.00 0.00 76 1012.3
20260509133711 55 88 2.0 3.0 0.00 0.00 0.00 74 1012.5
20260509133208 55 70 2.0 2.0 0.00 0.00 0.00 76 1012.2
20260509132706 55 66 2.0 3.0 0.00 0.00 0.00 75 1012.4
20260509132204 55 76 3.0 3.0 0.00 0.00 0.00 76 1012.3
20260509131700 54 87 2.0 3.0 0.00 0.00 0.00 75 1012.4
20260509131157 54 74 2.0 3.0 0.00 0.00 0.00 77 1012.4
20260509130653 54 81 2.0 3.0 0.00 0.00 0.00 77 1012.3
20260509130149 54 101 2.0 3.0 0.00 0.00 0.00 77 1012.3
20260509125646 54 65 2.0 3.0 0.00 0.00 0.00 77 1011.9
20260509125143 54 72 3.0 4.0 0.00 0.00 0.00 75 1011.8
20260509124639 54 40 2.0 3.0 0.00 0.00 0.00 75 1012.0
20260509124136 54 152 2.0 3.0 0.00 0.00 0.00 74 1011.9
20260509123634 54 87 2.0 4.0 0.00 0.00 0.00 74 1011.8
20260509123131 54 97 2.0 4.0 0.00 0.00 0.00 74 1011.6
20260509122626 55 77 2.0 3.0 0.00 0.00 0.00 75 1011.4
20260509122124 54 69 2.0 2.0 0.00 0.00 0.00 74 1011.7
20260509121620 54 56 1.0 2.0 0.00 0.00 0.00 74 1011.7
20260509121118 54 132 0.0 2.0 0.00 0.00 0.00 74 1011.9
20260509120616 54 87 2.0 2.0 0.00 0.00 0.00 73 1011.9
20260509120114 54 81 2.0 2.0 0.00 0.00 0.00 77 1011.8
20260509115611 54 50 2.0 2.0 0.00 0.00 0.00 76 1012.0
20260509115109 54 50 0.0 1.0 0.00 0.00 0.00 74 1011.9
20260509114607 54 14 0.0 2.0 0.00 0.00 0.00 74 1011.9
20260509114106 53 64 2.0 2.0 0.00 0.00 0.00 74 1011.8
20260509113603 53 154 0.0 1.0 0.00 0.00 0.00 73 1012.0
20260509113100 53 67 2.0 2.0 0.00 0.00 0.00 73 1011.7
20260509112556 53 291 1.0 2.0 0.00 0.00 0.00 73 1011.9
20260509112054 53 79 2.0 2.0 0.00 0.00 0.00 73 1011.8
20260509111551 53 95 3.0 3.0 0.00 0.00 0.00 73 1011.5
20260509111048 53 319 3.0 3.0 0.00 0.00 0.00 73 1011.6
20260509110545 53 30 0.0 3.0 0.00 0.00 0.00 79 1011.5
20260509110042 53 96 3.0 4.0 0.00 0.00 0.00 76 1011.5
20260509105540 53 20 2.0 2.0 0.00 0.00 0.00 72 1011.5
20260509105037 53 183 0.0 3.0 0.00 0.00 0.00 73 1011.6
20260509104534 53 300 2.0 3.0 0.00 0.00 0.00 71 1011.7
20260509104031 53 313 2.0 3.0 0.00 0.00 0.00 77 1011.2
20260509103529 53 110 0.0 2.0 0.00 0.00 0.00 76 1011.4
20260509103027 53 44 3.0 3.0 0.00 0.00 0.00 73 1011.2
20260509102524 53 69 1.0 3.0 0.00 0.00 0.00 72 1011.4
20260509102020 52 0 0.0 3.0 0.00 0.00 0.00 72 1011.4
20260509101517 52 36 2.0 2.0 0.00 0.00 0.00 75 1011.5
20260509101014 52 58 2.0 3.0 0.00 0.00 0.00 77 1011.4
20260509100511 52 22 1.0 3.0 0.00 0.00 0.00 78 1011.3
20260509100008 52 97 2.0 3.0 0.00 0.00 0.00 76 1011.2
20260509095504 52 16 2.0 2.0 0.00 0.00 0.00 78 1011.4
20260509095002 51 43 0.0 3.0 0.00 0.00 0.00 77 1011.2
20260509094458 52 81 2.0 4.0 0.00 0.00 0.00 79 1011.3
20260509093956 52 86 2.0 3.0 0.00 0.00 0.00 77 1011.4
20260509093454 52 65 2.0 3.0 0.00 0.00 0.00 75 1011.5
20260509092951 52 30 2.0 2.0 0.00 0.00 0.00 74 1011.5
20260509092449 52 40 2.0 3.0 0.00 0.00 0.00 75 1011.2
20260509091948 52 39 1.0 2.0 0.00 0.00 0.00 81 1011.4
20260509091443 52 65 3.0 3.0 0.00 0.00 0.00 78 1011.5
20260509090941 52 58 2.0 3.0 0.00 0.00 0.00 76 1011.5
20260509090438 52 37 2.0 2.0 0.00 0.00 0.00 79 1011.5
20260509085936 52 53 2.0 2.0 0.00 0.00 0.00 79 1011.4
20260509085432 52 92 2.0 2.0 0.00 0.00 0.00 78 1011.5
20260509084928 52 67 2.0 3.0 0.00 0.00 0.00 78 1011.6
20260509084426 52 65 2.0 2.0 0.00 0.00 0.00 79 1011.6
20260509083923 52 67 2.0 2.0 0.00 0.00 0.00 79 1011.6
20260509083420 52 51 2.0 2.0 0.00 0.00 0.00 78 1011.6
20260509082917 52 70 2.0 4.0 0.00 0.00 0.00 75 1011.6
20260509082414 52 84 4.0 4.0 0.00 0.00 0.00 77 1011.7
20260509081911 52 66 1.0 2.0 0.00 0.00 0.00 76 1011.4
20260509081408 52 64 2.0 2.0 0.00 0.00 0.00 77 1011.7
20260509080906 52 58 2.0 3.0 0.00 0.00 0.00 76 1011.6
20260509080403 52 66 2.0 2.0 0.00 0.00 0.00 78 1011.6
20260509075902 52 50 2.0 2.0 0.00 0.00 0.00 78 1011.8
20260509075358 52 58 2.0 2.0 0.00 0.00 0.00 77 1011.6
20260509074856 52 92 1.0 2.0 0.00 0.00 0.00 78 1011.7
20260509074353 53 62 2.0 3.0 0.00 0.00 0.00 77 1011.7
20260509073849 53 67 1.0 2.0 0.00 0.00 0.00 79 1011.8
20260509073346 53 68 2.0 2.0 0.00 0.00 0.00 77 1011.6
20260509072842 53 49 2.0 2.0 0.00 0.00 0.00 76 1011.7
20260509072339 53 80 2.0 3.0 0.00 0.00 0.00 75 1011.7
20260509071836 53 81 2.0 2.0 0.00 0.00 0.00 76 1011.9
20260509071333 53 76 1.0 2.0 0.00 0.00 0.00 73 1011.9
20260509070830 53 51 2.0 3.0 0.00 0.00 0.00 75 1011.8
20260509070326 53 64 2.0 2.0 0.00 0.00 0.00 75 1012.1
20260509065823 53 55 2.0 3.0 0.00 0.00 0.00 72 1011.8
20260509065319 53 48 3.0 3.0 0.00 0.00 0.00 67 1012.0
20260509064815 53 57 2.0 2.0 0.00 0.00 0.00 70 1012.0
20260509064313 53 50 2.0 2.0 0.00 0.00 0.00 67 1011.8
20260509063810 53 47 2.0 3.0 0.00 0.00 0.00 68 1012.0
20260509063306 53 48 2.0 3.0 0.00 0.00 0.00 69 1011.8
20260509062804 53 52 2.0 3.0 0.00 0.00 0.00 72 1011.9
20260509062301 53 38 2.0 2.0 0.00 0.00 0.00 72 1012.1
20260509061758 53 48 2.0 2.0 0.00 0.00 0.00 74 1012.0
20260509061256 53 58 2.0 2.0 0.00 0.00 0.00 72 1012.1
20260509060752 53 43 2.0 3.0 0.00 0.00 0.00 72 1012.1
20260509060249 53 31 2.0 3.0 0.00 0.00 0.00 68 1011.9
20260509055745 52 35 2.0 3.0 0.00 0.00 0.00 75 1011.8
20260509055241 53 47 1.0 2.0 0.00 0.00 0.00 76 1011.9
20260509054737 53 64 2.0 3.0 0.00 0.00 0.00 74 1011.8
20260509054234 53 69 1.0 2.0 0.00 0.00 0.00 73 1011.9
20260509053733 53 65 2.0 3.0 0.00 0.00 0.00 70 1012.1
20260509053229 53 73 3.0 4.0 0.00 0.00 0.00 70 1012.3
20260509052727 52 80 3.0 3.0 0.00 0.00 0.00 75 1012.1
20260509052225 52 56 1.0 3.0 0.00 0.00 0.00 75 1012.3
20260509051722 53 73 2.0 2.0 0.00 0.00 0.00 75 1012.2
20260509051220 53 64 2.0 3.0 0.00 0.00 0.00 75 1012.4
20260509050717 53 72 2.0 2.0 0.00 0.00 0.00 74 1012.5
20260509050213 53 64 3.0 3.0 0.00 0.00 0.00 73 1012.6
20260509045711 53 76 2.0 2.0 0.00 0.00 0.00 74 1012.7
20260509045207 53 73 2.0 2.0 0.00 0.00 0.00 74 1012.3
20260509044705 54 46 2.0 2.0 0.00 0.00 0.00 73 1012.4
20260509044202 54 49 2.0 2.0 0.00 0.00 0.00 73 1012.7
20260509043658 54 72 2.0 2.0 0.00 0.00 0.00 71 1012.4
20260509043154 54 50 2.0 3.0 0.00 0.00 0.00 65 1012.7
20260509042651 54 53 2.0 2.0 0.00 0.00 0.00 70 1012.6
20260509042147 54 78 2.0 2.0 0.00 0.00 0.00 68 1012.8
20260509041643 54 39 2.0 2.0 0.00 0.00 0.00 67 1012.6
20260509041141 54 58 2.0 3.0 0.00 0.00 0.00 67 1012.9
20260509040639 54 64 2.0 2.0 0.00 0.00 0.00 63 1012.6
20260509040136 54 60 2.0 2.0 0.00 0.00 0.00 63 1012.8
20260509035633 54 20 1.0 2.0 0.00 0.00 0.00 72 1012.8
20260509035129 55 78 3.0 5.0 0.00 0.00 0.00 71 1012.9
20260509034627 55 83 4.0 4.0 0.00 0.00 0.00 65 1012.6
20260509034124 55 54 2.0 2.0 0.00 0.00 0.00 61 1012.8
20260509033621 56 87 3.0 3.0 0.00 0.00 0.00 64 1013.0
20260509033118 56 37 2.0 2.0 0.00 0.00 0.00 60 1012.9
20260509032615 55 17 2.0 3.0 0.00 0.00 0.00 61 1013.0
20260509032112 55 1 2.0 2.0 0.00 0.00 0.00 63 1013.1
20260509031610 55 11 2.0 3.0 0.00 0.00 0.00 66 1013.0
20260509031107 55 14 2.0 3.0 0.00 0.00 0.00 70 1013.0
20260509030605 55 50 3.0 3.0 0.00 0.00 0.00 65 1012.9
20260509025558 56 66 3.0 3.0 0.00 0.00 0.00 61 1013.1
20260509025054 57 66 0.0 2.0 0.00 0.00 0.00 59 1013.3
20260509024550 57 44 2.0 2.0 0.00 0.00 0.00 58 1012.9
20260509024046 57 23 2.0 2.0 0.00 0.00 0.00 56 1012.9
20260509023544 57 34 2.0 3.0 0.00 0.00 0.00 55 1013.0
20260509023040 57 38 3.0 3.0 0.00 0.00 0.00 56 1013.0
20260509022537 57 20 2.0 2.0 0.00 0.00 0.00 57 1013.1
20260509022035 57 78 2.0 2.0 0.00 0.00 0.00 59 1013.1
20260509021532 57 11 0.0 2.0 0.00 0.00 0.00 58 1013.3
20260509021028 57 40 2.0 3.0 0.00 0.00 0.00 58 1013.0
20260509020527 57 58 2.0 2.0 0.00 0.00 0.00 61 1013.2
20260509020023 57 49 1.0 2.0 0.00 0.00 0.00 57 1013.2
20260509015523 57 43 1.0 2.0 0.00 0.00 0.00 60 1012.9
20260509015019 57 132 0.0 1.0 0.00 0.00 0.00 61 1012.7
20260509014516 57 76 2.0 2.0 0.00 0.00 0.00 60 1012.7
20260509014012 57 51 2.0 3.0 0.00 0.00 0.00 57 1012.6
20260509013509 57 43 2.0 3.0 0.00 0.00 0.00 58 1012.8
20260509013005 58 35 2.0 2.0 0.00 0.00 0.00 57 1012.7
20260509012501 58 49 2.0 3.0 0.00 0.00 0.00 58 1012.6
20260509011958 58 37 2.0 2.0 0.00 0.00 0.00 56 1012.8
20260509011456 58 5 0.0 2.0 0.00 0.00 0.00 57 1012.9
20260509010953 58 76 1.0 2.0 0.00 0.00 0.00 57 1012.6
20260509010451 58 55 2.0 2.0 0.00 0.00 0.00 56 1012.6
20260509005947 58 47 2.0 3.0 0.00 0.00 0.00 54 1012.4
20260509005446 59 50 2.0 3.0 0.00 0.00 0.00 54 1012.4
20260509004945 59 49 2.0 3.0 0.00 0.00 0.00 53 1012.6
20260509004442 60 40 2.0 3.0 0.00 0.00 0.00 50 1012.5
20260509003940 60 30 0.0 2.0 0.00 0.00 0.00 51 1012.6
20260509003438 60 124 0.0 1.0 0.00 0.00 0.00 47 1012.6
20260509002935 61 269 0.0 4.0 0.00 0.00 0.00 46 1012.5
20260509002433 61 315 1.0 4.0 0.00 0.00 0.00 46 1012.5
20260509001930 62 69 0.0 3.0 0.00 0.00 0.00 45 1012.5
20260509001426 62 315 2.0 3.0 0.00 0.00 0.00 45 1012.6
20260509000923 62 51 1.0 5.0 0.00 0.00 0.00 45 1012.4
20260509000421 62 281 3.0 3.0 0.00 0.00 0.00 43 1012.5
20260508235916 62 157 0.0 6.0 0.00 0.00 0.00 43 1012.3
20260508235414 62 4 3.0 3.0 0.00 0.00 0.00 43 1012.3
20260508234911 63 322 0.0 2.0 0.00 0.00 0.00 43 1012.2
20260508234408 63 354 4.0 4.0 0.00 0.00 0.00 43 1012.0
20260508233906 63 276 8.0 9.0 0.00 0.00 0.00 43 1012.1
20260508233405 63 44 1.0 3.0 0.00 0.00 0.00 43 1012.0
20260508232901 63 215 0.0 2.0 0.00 0.00 0.00 43 1011.8
20260508232358 63 194 1.0 4.0 0.00 0.00 0.00 42 1011.8
20260508231856 63 307 3.0 3.0 0.00 0.00 0.00 43 1011.8
20260508231352 63 129 0.0 2.0 0.00 0.00 0.00 44 1011.8
20260508230849 63 1 1.0 2.0 0.00 0.00 0.00 43 1011.6
20260508230345 63 288 1.0 3.0 0.00 0.00 0.00 42 1011.9
20260508225843 63 45 2.0 4.0 0.00 0.00 0.00 45 1011.9
20260508225339 63 148 0.0 2.0 0.00 0.00 0.00 44 1011.9
20260508224838 63 93 1.0 2.0 0.00 0.00 0.00 41 1012.0
20260508224335 63 273 2.0 3.0 0.00 0.00 0.00 41 1011.7
20260508223832 63 301 0.0 2.0 0.00 0.00 0.00 41 1011.9
20260508223329 64 67 1.0 3.0 0.00 0.00 0.00 41 1011.8
20260508222827 64 279 2.0 3.0 0.00 0.00 0.00 39 1011.7
20260508222324 64 89 0.0 3.0 0.00 0.00 0.00 39 1012.0
20260508221821 64 298 3.0 11.0 0.00 0.00 0.00 39 1011.8
20260508221316 64 302 2.0 4.0 0.00 0.00 0.00 39 1011.9
20260508220812 64 17 0.0 4.0 0.00 0.00 0.00 38 1011.6
20260508220309 64 284 7.0 12.0 0.00 0.00 0.00 38 1011.5
20260508215806 64 35 2.0 3.0 0.00 0.00 0.00 39 1011.8
20260508215306 64 258 2.0 6.0 0.00 0.00 0.00 39 1011.7
20260508214759 63 331 4.0 4.0 0.00 0.00 0.00 39 1011.6
20260508214256 63 66 0.0 3.0 0.00 0.00 0.00 39 1011.7
20260508213753 64 347 1.0 3.0 0.00 0.00 0.00 38 1011.9
20260508213250 64 314 0.0 3.0 0.00 0.00 0.00 37 1011.9